Location: Acequia del Cap
(41.7000°N, 0.6167°E)
Time: 23:48:00
(UTC+00:00)

SeaSat 1 - Pass Details

Date: 07 August 2020
Orbit: 744 x 748 km, 108.0° (Epoch: 22 September)

Event Time Altitude Azimuth Distance (km) Brightness Sun altitude
Rises 03:16:29 0° 30° (NNE) 3,199 7.1 -16.9°
Reaches altitude 10° 03:18:48 10° 35° (NE) 2,271 6.2 -16.5°
Maximum altitude 03:23:39 55° 113° (ESE) 899 3.0 -15.8°
Enters shadow 03:27:41 15° 188° (S) 1,961 4.2 -15.3°
